User: anonymous   Login
Location: Balmoral
(33.0667°S, 151.5833°E)
Time: 14:55:05
(UTC+00:00)
Language:

SEDSat Delta rocket - Orbit

View from above orbital plane
View from above orbital plane
View from above satellite
View from above satellite

Ground track
Ground track

The orbit data is extracted from the following two-line orbital elements,

1 25510U 98061C   20339.62942816  .00000419  00000-0  61899-4 0  9993
2 25510  31.4348  74.5852 0326827 155.1390 309.2809 14.37527406160176
Epoch (UTC): 04 December 2020 15:06:22
Eccentricity: 0.0326827
inclination: 31.4348°
perigee height: 533 km
apogee height: 1000 km
right ascension of ascending node: 74.5852°
argument of perigee: 155.1390°
revolutions per day: 14.37527406
mean anomaly at epoch: 309.2809°
orbit number at epoch: 16017

The dashed part of the orbit path shows where the satellite is in the earth's shadow,  

DLR